Kingston upon Thames, United Kingdom
Current Conditions -  °F | °C
As of 4:50 PM on Thursday 23 Oct 2014 (Local Time) from EGLL Reporting Station
Broken Clouds Broken Clouds  
Wind Chill: 61°   Ceiling: 2500
Heat Index: 61°   Visibility: 6mi
Dew Point: 54°   Wind: 12mph
Humidity: 77%   Direction: 210°SSW
Pressure: 30.06"   Gusts: NA
Location:  51.41°N, 0.3°W
Report Text: EGLL 231550Z 21010KT 180V240 9999 SCT019 BKN025 16/12 Q1018
Loading
Personal Weather Stations






























Interactive Weather Map
Tropical Storm Tracking
New forecast layout! Learn more

10-Day Weather Forecast

Advertisements
Track Severe Weather on mobile